Regional Weather Roundup
Issued by NWS

Home | Current Version | Previous Version | Text Only | Print | Product List | Glossary Off
Versions: 1 2 3 4 5 6 7 8 9 10 11 12 13 14 15 16 17 18 19 20 21 22 23 24 25 26 27 28 29 30 31 32 33 34 35 36 37 38 39 40 41 42 43 44 45 46 47 48 49 50

000
ASUS43 KLOT 260312
RWRIL

ILLINOIS REGIONAL WEATHER ROUNDUP
NATIONAL WEATHER SERVICE CHICAGO/ROMEOVILLE IL
1000 PM CDT MON MAY 25 2015

NOTE: "FAIR" INDICATES FEW OR NO CLOUDS BELOW 12,000 FEET WITH NO
SIGNIFICANT WEATHER AND/OR OBSTRUCTIONS TO VISIBILITY.

* THESE STATIONS ARE NOT UNDER NWS QUALITY CONTROL. THEY ALSO MAY NOT
  REPORT WEATHER SUCH AS PRECIPITATION OR FOG.

ILZ001-002-007-009-015-016-024-260400-
NORTHWEST ILLINOIS

CITY           SKY/WX    TMP DP  RH WIND       PRES   REMARKS
MOLINE         PTCLDY    69  61  75 S7        29.90R
STERLING*      PTCLDY    72  61  68 CALM      29.93R
SAVANNA*       PTCLDY    71  61  69 S8        29.89S
$$

ILZ003-004-008-010-011-017-018-260400-
NORTH CENTRAL ILLINOIS

CITY           SKY/WX    TMP DP  RH WIND       PRES   REMARKS
ROCKFORD       PTCLDY    73  58  59 SW8       29.93R
FREEPORT*      PTCLDY    69  61  77 S9        29.92R
ROCHELLE*      CLEAR     66  62  88 S7        29.94R
DE KALB*       CLEAR     64  59  82 S7        29.96R
PERU*          CLEAR     71  60  69 S9        29.95R
$$

ILZ005-006-012>014-019>023-260400-
NORTHEAST ILLINOIS

CITY           SKY/WX    TMP DP  RH WIND       PRES   REMARKS
CHICAGO-OHARE  PTCLDY    73  59  61 S8        29.93R
CHICAGO-MIDWAY CLEAR     77  60  55 S5        29.94R
AURORA         CLEAR     71  60  68 S9        29.94R
LANSING*       CLEAR     72  59  65 S12       29.97R
JOLIET*        CLEAR     72  60  64 S3        29.95R
WAUKEGAN       CLEAR     66  59  78 S5        29.93R
DUPAGE AIRPORT CLEAR     69  60  73 S7        29.94R
KANKAKEE*      CLEAR     73  64  74 S16       29.99R
WHEELING       CLEAR     68  60  75 CALM      29.95R
MORRIS*        CLEAR     69  58  68 S6        29.94R
ROMEOVILLE*    CLEAR     68  58  70 SW7       29.96R
NORTHERLY ISL    N/A     75  57  53 S7          N/A
$$

LMZ740>746-260400-
SOUTHERN LAKE MICHIGAN

STATION/POSITION SKY/WX   TEMP    WIND        PRES    VSBY  WAVE
                          AIR SEA DIR/SP/G                  HT/PER
                          (F)     (DEG/KT/KT) (MB)    (MI)  (FT/S)
SOUTHERN BUOY              49 38  200/ 12/ 12 1013.9R         1/ 3
HARRISON CRIB              76     190/ 12/ 12   N/A
BURNHAM HARBOR             76     190/  6/  7   N/A
CALUMET HARBOR             75     170/  3/  5   N/A
BURNS HARBOR               76     190/  8/ 10 1013.9S
MICHIGAN CITY              77     150/ 10/ 12   N/A
MICHIGAN CITY 6N           63 52  200/  6/  8   N/A           1
ST. JOSEPH                 65 55  200/ 10/ 10   N/A           1/ 3
$$

ILZ025>027-034>036-040-047-049-050-058-095>099-260400-
WEST-CENTRAL ILLINOIS

CITY           SKY/WX    TMP DP  RH WIND       PRES   REMARKS
QUINCY         MOCLDY    72  65  78 SE7       29.91R
GALESBURG*     CLEAR     70  62  77 SE5       29.93R
MACOMB*        PTCLDY    70  64  81 SE8       29.95R
JACKSONVILLE*  PTCLDY    77  68  74 SE10G20   29.95R
PITTSFIELD*    MOCLDY    75  67  75 SE8       29.94S
$$

ILZ028>032-037-038-041>044-048-051>054-059>061-260400-
CENTRAL ILLINOIS

CITY           SKY/WX    TMP DP  RH WIND       PRES   REMARKS
PONTIAC        CLEAR     75  62  64 S16       29.98R
BLOOMINGTON    CLEAR     72  65  78 S13       30.01R
DECATUR        CLEAR     73  65  75 S10       30.02R
PEORIA         CLEAR     76  65  68 S14G24    29.95R
LACON*         PTCLDY    74  62  66 S12       29.94R
LINCOLN*       PTCLDY    74  65  74 S10       29.96R
SPRINGFIELD    PTCLDY    75  66  73 S15       29.98R
TAYLORVILLE    PTCLDY    72  64  78 SE12      30.00R
$$

ILZ033-039-045-046-055>057-062-063-260400-
EAST-CENTRAL ILLINOIS

CITY           SKY/WX    TMP DP  RH WIND       PRES   REMARKS
CHAMPAIGN      CLEAR     73  65  75 S12       30.03R
DANVILLE*      PTCLDY    71  65  80 S13       30.01R
RANTOUL*       CLEAR     74  65  74 S14       30.02R
MATTOON        PTCLDY    71  65  81 S12       30.03R
PARIS*         MOCLDY    71  66  82 S10       30.06R
$$

ILZ079-100>102-260400-
SOUTHWEST ILLINOIS

CITY           SKY/WX    TMP DP  RH WIND       PRES   REMARKS
ALTON          PTCLDY    75  72  88 SE9       29.97S
BELLEVILLE     PTCLDY    72  70  93 SE9       29.96F
CAHOKIA*       MOCLDY    74  67  78 SE10      29.95F
SPARTA*        PTCLDY    71  67  88 SE7       29.99F
$$

ILZ064>066-069>071-074>076-080>082-084>086-088>090-092>094-260400-
SOUTH-CENTRAL ILLINOIS

CITY           SKY/WX    TMP DP  RH WIND       PRES   REMARKS
CARBONDALE     CLEAR     70  66  87 SE8       30.00F
CAIRO*         PTCLDY    71  68  90 SE7       30.01F
EFFINGHAM*     CLEAR     71  64  78 SE6       30.05R
MARION         CLEAR     72  68  88 SE6       30.02F
MT. VERNON     CLEAR     70  63  78 SE7       30.03F
CENTRALIA*     CLEAR     70  65  83 SE8       30.01F
SALEM*         CLEAR     73  66  78 SE5       30.02S
METROPOLIS*    PTCLDY    71  70  98 CALM      30.03S
$$

ILZ067-068-072-073-078-083-087-091-260400-
SOUTHEAST ILLINOIS

CITY           SKY/WX    TMP DP  RH WIND       PRES   REMARKS
LAWRENCEVILLE  MOCLDY    69  65  86 S6        30.08R
FLORA*         MOCLDY    70  65  85 S10       30.04S
FAIRFIELD*     PTCLDY    70  66  88 SE6       30.03F
HARRISBURG*    PTCLDY    69  68  96 SE6       30.04F
ROBINSON*      PTCLDY    70  65  84 S10       30.07R
CARMI*         MOCLDY    68  63  83 SE7       30.04F
$$

ABBREVIATIONS USED IN REMARKS
   TC - TEMPERATURE IN CELSIUS
  WCI - WIND CHILL INDEX
   HX - HEAT INDEX
  VSB - VISIBILITY
$$



USA.gov is the U.S. government's official web portal to all federal, state and local government web resources and services.